Simultaneous Nadir Overpasses (SNOs) Predictions

Prediction of SNOs between GOES-16 and METOP-B Satellite Orbit:

Table of predicted SNOs for the next 14.0 days since TLE Epoch: 7/1/2023
Index Date Time (GOES-16) GOES-16 Lat,Lon METOP-B Lat,Lon Distance(km) Time Diff (sec)
1 07/02/2023 14:33:25 -0.00, -75.20 0.08, -75.67 52.34 80
2 07/05/2023 02:31:44 0.02, -75.20 -0.01, -75.26 7.20 80
3 07/07/2023 14:27:15 -0.03, -75.23 -0.12, -74.83 44.74 80
4 07/09/2023 02:48:54 0.03, -75.24 -0.88, -79.43 477.63 80
5 07/10/2023 02:25:34 0.04, -75.25 0.22, -74.43 92.93 80
6 07/11/2023 14:47:04 -0.03, -75.28 0.80, -78.99 423.57 80
7 07/12/2023 14:23:44 -0.04, -75.29 -0.30, -73.99 147.40 80
8 07/14/2023 02:45:23 0.03, -75.31 -0.69, -78.59 373.81 80
